Overview Statistics Trail Chart Weather Telemetry Raw packets
 

This is the latest recevied weather packets stored in our database for station/object DG6YGE-6. If no packets are shown the sender has not sent any weather packets the latest 10 day(s).

<< 49 50 51 52 53 54 55 >>
Time Temp. Humidity Pressure Rain* Wind** Luminosity Snow
1787900952 20.56° C 90% 1006 hPa 0 mm - 51 W/m² -
1787900352 20.56° C 90% 1006.6 hPa 0 mm - 28 W/m² -
1787899752 20.56° C 90% 1006.7 hPa 0 mm - 33 W/m² -
1787899152 20.56° C 90% 1006.5 hPa 0 mm - 56 W/m² -
1787898552 20.56° C 90% 1006.4 hPa 0 mm - 81 W/m² -
1787897952 20.56° C 90% 1006.2 hPa 0 mm - 101 W/m² -
1787897352 20.56° C 90% 1005.7 hPa 0 mm - 52 W/m² -
1787896752 20.56° C 90% 1005.7 hPa 0 mm - 28 W/m² -
1787896152 20.56° C 90% 1005.5 hPa 0 mm - 31 W/m² -
1787895552 20.56° C 90% 1005.3 hPa 0 mm - 27 W/m² -
1787894952 20.56° C 90% 1005 hPa 0 mm - 19 W/m² -
1787894352 20.56° C 90% 1005.1 hPa 0 mm - 12 W/m² -
1787893752 20.56° C 90% 1005.5 hPa 0 mm - 8 W/m² -
1787893152 20.56° C 90% 1005.7 hPa 0 mm - 5 W/m² -
1787892552 20.56° C 90% 1005.8 hPa 0 mm - 0 W/m² -
1787891952 20.56° C 90% 1005.6 hPa 0 mm - 0 W/m² -
1787891352 20.56° C 90% 1005.6 hPa 0 mm - 0 W/m² -
1787890752 20.56° C 90% 1006 hPa 0 mm - 0 W/m² -
1787890152 20.56° C 90% 1006.1 hPa 0 mm - 0 W/m² -
1787889552 20.56° C 90% 1006.1 hPa 0 mm - 0 W/m² -
1787888952 20.56° C 90% 1006.2 hPa 0 mm - 0 W/m² -
1787888352 20.56° C 90% 1006.3 hPa 0 mm - 0 W/m² -
1787887752 20.56° C 90% 1006.5 hPa 0 mm - 0 W/m² -
1787887152 20.56° C 90% 1006.7 hPa 0 mm - 0 W/m² -
1787886552 20.56° C 90% 1006.8 hPa 0 mm - 0 W/m² -

* Rain latest hour (hover to see other rain measurements)
** Current wind speed in m/s (hover to see current wind gust speed)